Regional Weather Roundup
Issued by NWS

Home | Current Version | Previous Version | Text Only | Print | Product List | Glossary Off
Versions: 1 2 3 4 5 6 7 8 9 10 11 12 13 14 15 16 17 18 19 20 21 22 23 24 25 26 27 28 29 30 31 32 33 34 35 36 37 38 39 40 41 42 43 44 45 46 47 48 49 50

000
ASUS45 KCYS 212210
RWRWY

WYOMING REGIONAL WEATHER ROUNDUP
NATIONAL WEATHER SERVICE CHEYENNE WY
400 PM MDT SAT OCT 21 2017

NOTE:  "FAIR" INDICATES FEW OR NO CLOUDS BELOW 12,000 FEET
WITH NO SIGNIFICANT WEATHER AND/OR OBSTRUCTIONS TO VISIBILITY.

WYZ001-212300-
YELLOWSTONE NATIONAL PARK

CITY           SKY/WX    TMP DP  RH WIND       PRES   REMARKS
LK YELLOWSTONE   N/A     27  19  72 VRB5      30.11R WCI  22
W YELLOWSTONE  NOT AVBL

$$
WYZ002>013-054>058-071-098>099-212300-
NORTHERN WYOMING

CITY           SKY/WX    TMP DP  RH WIND       PRES   REMARKS
JACKSON        CLOUDY    35  20  54 SW17G23   30.14R WCI  25
CODY           FAIR      44  15  31 W22G31    29.99R
GREYBULL       FAIR      54  14  20 W17G25    29.95R
WORLAND        CLOUDY    55  12  18 E8        29.95R
SHERIDAN       FAIR      55  16  21 W23       29.91R
BUFFALO        FAIR      51  10  19 SW10      29.94R
GILLETTE       FAIR      52  12  20 NW16G24   29.92R
HULETT         FAIR      52  18  25 NW16G24   29.91R
NEWCASTLE      FAIR      50  12  22 NW21G30   29.93R

$$
WYZ014>020-022>026-101>103-212300-
CENTRAL WYOMING

CITY           SKY/WX    TMP DP  RH WIND       PRES   REMARKS
BIG PINEY      FAIR      39  11  31 N10       30.14R WCI  32
PINEDALE       CLOUDY    36  14  41 N14G21    30.15R WCI  27
DUBOIS         FAIR      34  12  40 NW23G35   30.05R WCI  22
LANDER         FAIR      49   7  18 W12       30.00R
RIVERTON       FAIR      48   8  19 NW21G26   30.00R
CASPER         FAIR      50   8  18 W18G31    29.98R
DOUGLAS        FAIR      48   7  18 W17       29.97R

$$
WYZ021-027>030-104>119-212300-
SOUTHERN WYOMING

CITY           SKY/WX    TMP DP  RH WIND       PRES   REMARKS
EVANSTON       FAIR      41  15  35 SW16G24   30.20R
KEMMERER       FAIR      37  12  35 W21G28    30.16S WCI  27
FORT BRIDGER   FAIR      43  14  31 W26       30.20R
ROCK SPRINGS   FAIR      41  10  28 W28G36    30.13S
DIXON          FAIR      42  18  38 W15G22    30.17R
RAWLINS        PTSUNNY   40  10  29 W26G38    30.09R WCI  29
SARATOGA       FAIR      39  18  41 W18G32    30.12R WCI  30
LARAMIE        PTSUNNY   38  11  32 W25G32    30.06R WCI  27
CHEYENNE       FAIR      46  13  26 W25G32    30.05R
TORRINGTON     FAIR      57  10  15 W22G32    29.95R
PINE BLUFFS    FAIR      50  10  20 NW25      30.02R

$$



USA.gov is the U.S. government's official web portal to all federal, state and local government web resources and services.